137  
ASUS43 KJKL 040310  
RWRJKL  
 
EAST KENTUCKY HOURLY WEATHER ROUNDUP  
NATIONAL WEATHER SERVICE JACKSON KY  
1000 PM EST WED MAR 03 2021  
 
NOTE: "FAIR" INDICATES FEW OR NO CLOUDS BELOW 12,000 FEET WITH  
NO SIGNIFICANT WEATHER AND/OR S TO VISIBILITY
.  
 
* THESE REPORTS ARE NOT UNDER NWS QUALITY CONTROL AND MAY NOT  
REPORT WEATHER SUCH AS PRECIPITATION AND FOG.
 
 
KYZ079-080-083-085-087-088-110-112-115-119-120-040400   
..EASTERN KENTUCKY
 
 
 
CITY SKY/WX TMP DP RH WIND PRES REMARKS
 
JACKSON CLEAR 49 27 42 SW6 30.05R  
LONDON CLEAR 41 31 67 CALM 30.07R  
SOMERSET* CLEAR 41 30 65 CALM 30.10R  
MONTICELLO* CLEAR 33 32 96 N9 30.10 WCI 25  
WILLIAMSBURG* N/A 43 28 56 CALM 30.08R  
MIDDLESBORO* CLEAR 38 32 80 CALM 30.09R  
HARLAN APT* CLEAR 41 28 60 CALM 30.07S  
PIKE CO APT* N/A 49 26 41 SW5 30.04R  
BIG SANDY APT* CLEAR 49 27 42 W3 30.04S  
MOREHEAD APT* PTCLDY 48 30 49 SW9 30.05R  
ASHLAND* N/A N/A N/A N/A MISG N/A  

 
 
KYZ035-036-041-042-044-050-067-078-099-040400   
..CENTRAL KENTUCKY
 
 
 
CITY SKY/WX TMP DP RH WIND PRES REMARKS
 
MT STERLING* CLEAR 46 32 57 W7 30.06R  
FLEMING/MASON* CLEAR 44 31 60 W7 30.04R  
DANVILLE* CLEAR 41 32 70 SW5 30.07S  
RICHMOND* N/A 48 32 53 SW8 30.05S  
LEXINGTON CLEAR 47 31 53 SW8 30.05R  
FRANKFORT CLEAR 46 31 55 W5 30.04R  
LOUISVILLE CLEAR 52 31 44 W6 30.06R  
LEBANON* N/A 46 36 66 CALM 30.07R  
GLASGOW* CLEAR 45 33 62 CALM 30.08R  
BOWLING GREEN CLEAR 47 34 60 CALM 30.09R  

 
 
KYZ091>093-OHZ055-061-077-WVZ005-015-034-035-042-040400   
..SOUTHERN OHIO/WEST VIRGINIA
 
 
 
CITY SKY/WX TMP DP RH WIND PRES REMARKS
 
COVINGTON CLEAR 49 32 52 NW9 30.04R  
COLUMBUS CLEAR 43 34 70 W7 29.98S  
DAYTON CLEAR 45 33 63 W9 30.03R  
WILMINGTON CLEAR 48 34 58 NW8 30.02R  
HUNTINGTON CLEAR 49 29 46 SW6 30.01R  
CHARLESTON CLEAR 43 29 57 SW5 30.00R  
PINEVILLE* N/A 35 29 79 MISG 30.07R  
BECKLEY CLEAR 41 21 44 W7 30.00S  
BLUEFIELD CLEAR 40 19 43 W6 30.02R  

 
 
VAZ002-007-008-TNZ017-027-036-066-071-040400   
..SOUTHWEST VIRGINIA/EAST TENNESSEE
 
 
 
CITY SKY/WX TMP DP RH WIND PRES REMARKS
 
WISE* CLEAR 43 21 42 W7 30.05S  
JONESVILLE* N/A 36 28 75 CALM 30.08R  
ABINGDON* CLEAR 38 23 53 CALM 30.05S  
BRISTOL CLEAR 41 26 55 CALM 30.05S  
MORRISTOWN* PTCLDY 45 25 45 CALM 30.05S  
SEVIERVILLE* CLEAR 41 30 65 CALM 30.07R  
KNOXVILLE CLEAR 46 28 49 CALM 30.06R  
LAFOLLETTE* CLEAR 41 30 65 CALM 30.10S  
OAK RIDGE CLEAR 44 32 62 CALM 30.08S  
CROSSVILLE CLEAR 42 29 59 W5 30.09R  
NASHVILLE CLEAR 48 32 53 S5 30.11R  

 
   
..KEY TO REMARKS
 
 
VSB - VISIBILITY IN MILES  
WCI - WIND CHILL INDEX  
HX - HEAT INDEX  
 

 
 
 
CLICK HERE TO GO TO PREVIOUS BULLETINS.

The Nexlab KY Page Main Text Page